User: anonymous   Login
Location: Caltech
(34.1382°N, 118.1253°W)
Time: 18:41:48
(UTC-07:00)
Language:

Cosmos 1484 Rocket - Orbit

View from above orbital plane
View from above orbital plane
View from above satellite
View from above satellite

Ground track
Ground track

The orbit data is extracted from the following two-line orbital elements,

1 14208U 83075B   17290.85956220  .00000389  00000-0  26944-4 0  9993
2 14208  97.3414 296.4006 0040918  68.8057 291.7538 15.10510602866026
Epoch (UTC): 17 October 2017 20:37:46
Eccentricity: 0.0040918
inclination: 97.3414°
perigee height: 506 km
apogee height: 563 km
right ascension of ascending node: 296.4006°
argument of perigee: 68.8057°
revolutions per day: 15.10510602
mean anomaly at epoch: 291.7538°
orbit number at epoch: 86602

The dashed part of the orbit path shows where the satellite is in the earth's shadow,  

DLR